This is the latest recevied weather packets stored in our database for station/object KF5JED-13. If no packets are shown the sender has not sent any weather packets the latest 10 day(s).
| Time | Temp. | Humidity | Pressure | Rain* | Wind** | Luminosity | Snow |
|---|---|---|---|---|---|---|---|
| 1777624292 | 9.44° C | 70% | 1017.7 hPa | 0.51 mm | - | 0 W/m² | - |
| 1777623992 | 10° C | 67% | 1017.8 hPa | 0 mm | - | 0 W/m² | - |
| 1777623688 | 10.56° C | 62% | 1017.7 hPa | 0 mm | - | 0 W/m² | - |
| 1777623386 | 11.11° C | 59% | 1017.9 hPa | 0 mm | - | 0 W/m² | - |
| 1777623082 | 11.67° C | 56% | 1017.8 hPa | 0 mm | - | 0 W/m² | - |
| 1777622780 | 11.67° C | 53% | 1017.8 hPa | 0 mm | - | 0 W/m² | - |
| 1777622475 | 11.67° C | 52% | 1018 hPa | 0 mm | - | 0 W/m² | - |
| 1777622166 | 12.22° C | 55% | 1017.8 hPa | 0 mm | - | 0 W/m² | - |
| 1777621862 | 12.22° C | 56% | 1017.9 hPa | 0 mm | - | 0 W/m² | - |
| 1777621558 | 12.22° C | 58% | 1017.9 hPa | 0 mm | - | 0 W/m² | - |
| 1777621255 | 12.22° C | 58% | 1017.9 hPa | 0 mm | - | 0 W/m² | - |
| 1777620951 | 12.22° C | 61% | 1017.9 hPa | 0 mm | - | 0 W/m² | - |
| 1777620647 | 12.22° C | 62% | 1017.8 hPa | 0 mm | - | 0 W/m² | - |
| 1777620343 | 12.22° C | 62% | 1017.8 hPa | 0 mm | - | 0 W/m² | - |
| 1777620040 | 12.22° C | 64% | 1017.9 hPa | 0 mm | - | 0 W/m² | - |
| 1777619737 | 12.22° C | 65% | 1017.8 hPa | 0 mm | - | 0 W/m² | - |
| 1777619437 | 11.67° C | 65% | 1018.2 hPa | 0 mm | - | 0 W/m² | - |
| 1777619132 | 11.67° C | 67% | 1018.2 hPa | 0 mm | - | 0 W/m² | - |
| 1777618827 | 11.67° C | 68% | 1018.4 hPa | 0 mm | - | 0 W/m² | - |
| 1777618527 | 11.67° C | 69% | 1018.2 hPa | 0 mm | - | 0 W/m² | - |
| 1777618223 | 11.67° C | 69% | 1018.2 hPa | 0 mm | - | 0 W/m² | - |
| 1777617921 | 11.67° C | 70% | 1018.1 hPa | 0 mm | - | 0 W/m² | - |
| 1777617616 | 11.67° C | 70% | 1018.1 hPa | 0 mm | - | 0 W/m² | - |
| 1777617313 | 11.67° C | 70% | 1018 hPa | 0 mm | - | 0 W/m² | - |
| 1777617011 | 11.67° C | 70% | 1018.2 hPa | 0 mm | - | 0 W/m² | - |
* Rain latest hour (hover to see other rain measurements)
** Current wind speed in m/s (hover to see current wind gust speed)